Time,TemperatureF,DewpointF,PressureIn,WindDirection,WindDirectionDegrees,WindSpeedMPH,WindSpeedGustMPH,Humidity,HourlyPrecipIn,Conditions,Clouds,dailyrainin,SoftwareType,DateUTC
2013-01-25 00:00:00,5.8,0.0,-100.00,North,-999,-999.0,-999.0,0,-99.99,,,-99.99,,2013-01-25 05:00:00,
2013-01-25 00:10:00,-1.0,0.0,-100.00,North,-999,-999.0,-999.0,0,-99.99,,,-99.99,,2013-01-25 05:10:00,
2013-01-25 00:20:00,-1.0,0.0,-100.00,North,-999,-999.0,-999.0,0,-99.99,,,-99.99,,2013-01-25 05:20:00,
2013-01-25 00:30:00,5.4,0.0,-100.00,North,-999,-999.0,-999.0,0,-99.99,,,-99.99,,2013-01-25 05:30:00,
2013-01-25 00:40:00,5.6,0.0,-100.00,North,-999,-999.0,-999.0,0,-99.99,,,-99.99,,2013-01-25 05:40:00,
2013-01-25 00:50:00,5.6,0.0,-100.00,North,-999,-999.0,-999.0,0,-99.99,,,-99.99,,2013-01-25 05:50:00,
2013-01-25 01:00:00,5.6,0.0,-100.00,North,-999,-999.0,-999.0,0,-99.99,,,-99.99,,2013-01-25 06:00:00,
2013-01-25 01:10:00,5.2,0.0,-100.00,North,-999,-999.0,-999.0,0,-99.99,,,-99.99,,2013-01-25 06:10:00,
2013-01-25 01:20:00,5.2,0.0,-100.00,North,-999,-999.0,-999.0,0,-99.99,,,-99.99,,2013-01-25 06:20:00,
2013-01-25 01:30:00,5.2,0.0,-100.00,North,-999,-999.0,-999.0,0,-99.99,,,-99.99,,2013-01-25 06:30:00,
2013-01-25 01:40:00,5.2,0.0,-100.00,North,-999,-999.0,-999.0,0,-99.99,,,-99.99,,2013-01-25 06:40:00,
2013-01-25 01:50:00,4.9,0.0,-100.00,North,-999,-999.0,-999.0,0,-99.99,,,-99.99,,2013-01-25 06:50:00,
2013-01-25 02:00:00,5.2,0.0,-100.00,North,-999,-999.0,-999.0,0,-99.99,,,-99.99,,2013-01-25 07:00:00,
2013-01-25 02:10:00,5.2,0.0,-100.00,North,-999,-999.0,-999.0,0,-99.99,,,-99.99,,2013-01-25 07:10:00,
2013-01-25 02:20:00,5.0,0.0,-100.00,North,-999,-999.0,-999.0,0,-99.99,,,-99.99,,2013-01-25 07:20:00,
2013-01-25 02:30:00,5.0,0.0,-100.00,North,-999,-999.0,-999.0,0,-99.99,,,-99.99,,2013-01-25 07:30:00,
2013-01-25 02:40:00,4.3,0.0,-100.00,North,-999,-999.0,-999.0,0,-99.99,,,-99.99,,2013-01-25 07:40:00,
2013-01-25 02:50:00,4.5,0.0,-100.00,North,-999,-999.0,-999.0,0,-99.99,,,-99.99,,2013-01-25 07:50:00,
2013-01-25 03:01:00,4.3,0.0,-100.00,North,-999,-999.0,-999.0,0,-99.99,,,-99.99,,2013-01-25 08:01:00,
2013-01-25 03:10:00,4.7,0.0,-100.00,North,-999,-999.0,-999.0,0,-99.99,,,-99.99,,2013-01-25 08:10:00,
2013-01-25 03:21:00,-1.0,0.0,-100.00,North,-999,-999.0,-999.0,0,-99.99,,,-99.99,,2013-01-25 08:21:00,
2013-01-25 03:30:00,4.3,0.0,-100.00,North,-999,-999.0,-999.0,0,-99.99,,,-99.99,,2013-01-25 08:30:00,
2013-01-25 03:40:00,-1.0,0.0,-100.00,North,-999,-999.0,-999.0,0,-99.99,,,-99.99,,2013-01-25 08:40:00,
2013-01-25 03:50:00,4.5,0.0,-100.00,North,-999,-999.0,-999.0,0,-99.99,,,-99.99,,2013-01-25 08:50:00,
2013-01-25 04:00:00,4.5,0.0,-100.00,North,-999,-999.0,-999.0,0,-99.99,,,-99.99,,2013-01-25 09:00:00,
2013-01-25 04:10:00,-1.0,0.0,-100.00,North,-999,-999.0,-999.0,0,-99.99,,,-99.99,,2013-01-25 09:10:00,
2013-01-25 04:20:00,-1.0,0.0,-100.00,North,-999,-999.0,-999.0,0,-99.99,,,-99.99,,2013-01-25 09:20:00,
2013-01-25 04:30:00,4.3,0.0,-100.00,North,-999,-999.0,-999.0,0,-99.99,,,-99.99,,2013-01-25 09:30:00,
2013-01-25 04:40:00,-1.0,0.0,-100.00,North,-999,-999.0,-999.0,0,-99.99,,,-99.99,,2013-01-25 09:40:00,
2013-01-25 04:50:00,4.1,0.0,-100.00,North,-999,-999.0,-999.0,0,-99.99,,,-99.99,,2013-01-25 09:50:00,
2013-01-25 05:00:00,4.3,0.0,-100.00,North,-999,-999.0,-999.0,0,-99.99,,,-99.99,,2013-01-25 10:00:00,
2013-01-25 05:10:00,4.3,0.0,-100.00,North,-999,-999.0,-999.0,0,-99.99,,,-99.99,,2013-01-25 10:10:00,
2013-01-25 05:20:00,4.7,0.0,-100.00,North,-999,-999.0,-999.0,0,-99.99,,,-99.99,,2013-01-25 10:20:00,
2013-01-25 05:30:00,4.7,0.0,-100.00,North,-999,-999.0,-999.0,0,-99.99,,,-99.99,,2013-01-25 10:30:00,
2013-01-25 05:40:00,4.7,0.0,-100.00,North,-999,-999.0,-999.0,0,-99.99,,,-99.99,,2013-01-25 10:40:00,
2013-01-25 05:50:00,-1.0,0.0,-100.00,North,-999,-999.0,-999.0,0,-99.99,,,-99.99,,2013-01-25 10:50:00,
2013-01-25 06:00:00,4.5,0.0,-100.00,North,-999,-999.0,-999.0,0,-99.99,,,-99.99,,2013-01-25 11:00:00,
2013-01-25 06:10:00,4.5,0.0,-100.00,North,-999,-999.0,-999.0,0,-99.99,,,-99.99,,2013-01-25 11:10:00,
2013-01-25 06:21:00,-1.0,0.0,-100.00,North,-999,-999.0,-999.0,0,-99.99,,,-99.99,,2013-01-25 11:21:00,
2013-01-25 06:30:00,4.3,0.0,-100.00,North,-999,-999.0,-999.0,0,-99.99,,,-99.99,,2013-01-25 11:30:00,
2013-01-25 06:40:00,4.1,0.0,-100.00,North,-999,-999.0,-999.0,0,-99.99,,,-99.99,,2013-01-25 11:40:00,
2013-01-25 06:50:00,4.0,0.0,-100.00,North,-999,-999.0,-999.0,0,-99.99,,,-99.99,,2013-01-25 11:50:00,
2013-01-25 07:00:00,4.1,0.0,-100.00,North,-999,-999.0,-999.0,0,-99.99,,,-99.99,,2013-01-25 12:00:00,
2013-01-25 07:10:00,-1.0,0.0,-100.00,North,-999,-999.0,-999.0,0,-99.99,,,-99.99,,2013-01-25 12:10:00,
2013-01-25 07:20:00,-1.0,0.0,-100.00,North,-999,-999.0,-999.0,0,-99.99,,,-99.99,,2013-01-25 12:20:00,
2013-01-25 07:30:00,4.7,0.0,-100.00,North,-999,-999.0,-999.0,0,-99.99,,,-99.99,,2013-01-25 12:30:00,
2013-01-25 07:40:00,-1.0,0.0,-100.00,North,-999,-999.0,-999.0,0,-99.99,,,-99.99,,2013-01-25 12:40:00,
2013-01-25 07:50:00,-1.0,0.0,-100.00,North,-999,-999.0,-999.0,0,-99.99,,,-99.99,,2013-01-25 12:50:00,
2013-01-25 08:01:00,6.3,0.0,-100.00,North,-999,-999.0,-999.0,0,-99.99,,,-99.99,,2013-01-25 13:01:00,
2013-01-25 08:10:00,-1.0,0.0,-100.00,North,-999,-999.0,-999.0,0,-99.99,,,-99.99,,2013-01-25 13:10:00,
2013-01-25 08:20:00,-1.0,0.0,-100.00,North,-999,-999.0,-999.0,0,-99.99,,,-99.99,,2013-01-25 13:20:00,
2013-01-25 08:31:00,-1.0,0.0,-100.00,North,-999,-999.0,-999.0,0,-99.99,,,-99.99,,2013-01-25 13:31:00,
2013-01-25 08:40:00,9.5,-5.3,-100.00,North,-999,-999.0,-999.0,50,-99.99,,,-99.99,,2013-01-25 13:40:00,
2013-01-25 08:50:00,10.1,-5.3,-100.00,North,-999,-999.0,-999.0,49,-99.99,,,-99.99,,2013-01-25 13:50:00,
2013-01-25 09:00:00,9.9,-6.3,-100.00,North,-999,-999.0,-999.0,47,-99.99,,,-99.99,,2013-01-25 14:00:00,
2013-01-25 09:10:00,10.4,-6.2,-100.00,North,-999,-999.0,-999.0,46,-99.99,,,-99.99,,2013-01-25 14:10:00,
2013-01-25 09:20:00,-1.0,0.0,-100.00,North,-999,-999.0,-999.0,0,-99.99,,,-99.99,,2013-01-25 14:20:00,
2013-01-25 09:30:00,11.0,-6.2,-100.00,North,-999,-999.0,-999.0,45,-99.99,,,-99.99,,2013-01-25 14:30:00,
2013-01-25 09:40:00,-1.0,0.0,-100.00,North,-999,-999.0,-999.0,0,-99.99,,,-99.99,,2013-01-25 14:40:00,
2013-01-25 09:50:00,12.8,-4.9,-100.00,North,-999,-999.0,-999.0,44,-99.99,,,-99.99,,2013-01-25 14:50:00,
2013-01-25 10:00:00,13.9,-4.4,-100.00,North,-999,-999.0,-999.0,43,-99.99,,,-99.99,,2013-01-25 15:00:00,
2013-01-25 10:10:00,14.9,-4.0,-100.00,North,-999,-999.0,-999.0,42,-99.99,,,-99.99,,2013-01-25 15:10:00,
2013-01-25 10:20:00,-1.0,0.0,-100.00,North,-999,-999.0,-999.0,0,-99.99,,,-99.99,,2013-01-25 15:20:00,
2013-01-25 10:30:00,15.1,-4.9,-100.00,North,-999,-999.0,-999.0,40,-99.99,,,-99.99,,2013-01-25 15:30:00,
2013-01-25 10:40:00,17.8,-1.8,-100.00,North,-999,-999.0,-999.0,41,-99.99,,,-99.99,,2013-01-25 15:40:00,
2013-01-25 10:50:00,16.4,-4.7,-100.00,North,-999,-999.0,-999.0,38,-99.99,,,-99.99,,2013-01-25 15:50:00,
2013-01-25 11:00:00,15.3,-5.6,-100.00,North,-999,-999.0,-999.0,38,-99.99,,,-99.99,,2013-01-25 16:00:00,
2013-01-25 11:10:00,-1.0,0.0,-100.00,North,-999,-999.0,-999.0,0,-99.99,,,-99.99,,2013-01-25 16:10:00,
2013-01-25 11:20:00,-1.0,0.0,-100.00,North,-999,-999.0,-999.0,0,-99.99,,,-99.99,,2013-01-25 16:20:00,
2013-01-25 11:30:00,19.4,-2.6,-100.00,North,-999,-999.0,-999.0,37,-99.99,,,-99.99,,2013-01-25 16:30:00,
2013-01-25 11:40:00,-1.0,0.0,-100.00,North,-999,-999.0,-999.0,0,-99.99,,,-99.99,,2013-01-25 16:40:00,
2013-01-25 11:50:00,-1.0,0.0,-100.00,North,-999,-999.0,-999.0,0,-99.99,,,-99.99,,2013-01-25 16:50:00,
2013-01-25 12:00:00,18.0,-3.8,-100.00,North,-999,-999.0,-999.0,37,-99.99,,,-99.99,,2013-01-25 17:00:00,
2013-01-25 12:10:00,21.8,-0.4,-100.00,North,-999,-999.0,-999.0,37,-99.99,,,-99.99,,2013-01-25 17:10:00,
2013-01-25 12:20:00,-1.0,0.0,-100.00,North,-999,-999.0,-999.0,0,-99.99,,,-99.99,,2013-01-25 17:20:00,
2013-01-25 12:31:00,-1.0,0.0,-100.00,North,-999,-999.0,-999.0,0,-99.99,,,-99.99,,2013-01-25 17:31:00,
2013-01-25 12:40:00,23.0,0.7,-100.00,North,-999,-999.0,-999.0,37,-99.99,,,-99.99,,2013-01-25 17:40:00,
2013-01-25 12:50:00,-1.0,0.0,-100.00,North,-999,-999.0,-999.0,0,-99.99,,,-99.99,,2013-01-25 17:50:00,
2013-01-25 13:00:00,20.5,-2.2,-100.00,North,-999,-999.0,-999.0,36,-99.99,,,-99.99,,2013-01-25 18:00:00,
2013-01-25 13:10:00,22.9,-0.6,-100.00,North,-999,-999.0,-999.0,35,-99.99,,,-99.99,,2013-01-25 18:10:00,
2013-01-25 13:20:00,22.0,-0.8,-100.00,North,-999,-999.0,-999.0,36,-99.99,,,-99.99,,2013-01-25 18:20:00,
2013-01-25 13:30:00,21.6,-2.4,-100.00,North,-999,-999.0,-999.0,34,-99.99,,,-99.99,,2013-01-25 18:30:00,
2013-01-25 13:40:00,25.9,1.4,-100.00,North,-999,-999.0,-999.0,34,-99.99,,,-99.99,,2013-01-25 18:40:00,
2013-01-25 13:50:00,24.1,-0.2,-100.00,North,-999,-999.0,-999.0,34,-99.99,,,-99.99,,2013-01-25 18:50:00,
2013-01-25 14:00:00,24.5,-0.4,-100.00,North,-999,-999.0,-999.0,33,-99.99,,,-99.99,,2013-01-25 19:00:00,
2013-01-25 14:10:00,22.5,-2.2,-100.00,North,-999,-999.0,-999.0,33,-99.99,,,-99.99,,2013-01-25 19:10:00,
2013-01-25 14:20:00,21.4,-3.1,-100.00,North,-999,-999.0,-999.0,33,-99.99,,,-99.99,,2013-01-25 19:20:00,
2013-01-25 14:30:00,22.7,-1.5,-100.00,North,-999,-999.0,-999.0,34,-99.99,,,-99.99,,2013-01-25 19:30:00,
2013-01-25 14:40:00,23.2,-0.9,-100.00,North,-999,-999.0,-999.0,34,-99.99,,,-99.99,,2013-01-25 19:40:00,
2013-01-25 14:50:00,23.6,0.0,-100.00,North,-999,-999.0,-999.0,35,-99.99,,,-99.99,,2013-01-25 19:50:00,
2013-01-25 15:00:00,22.9,-0.6,-100.00,North,-999,-999.0,-999.0,35,-99.99,,,-99.99,,2013-01-25 20:00:00,
2013-01-25 15:10:00,22.9,0.0,-100.00,North,-999,-999.0,-999.0,36,-99.99,,,-99.99,,2013-01-25 20:10:00,
2013-01-25 15:20:00,21.4,-2.0,-100.00,North,-999,-999.0,-999.0,35,-99.99,,,-99.99,,2013-01-25 20:20:00,
2013-01-25 15:30:00,21.8,-0.9,-100.00,North,-999,-999.0,-999.0,36,-99.99,,,-99.99,,2013-01-25 20:30:00,
2013-01-25 15:40:00,-1.0,0.0,-100.00,North,-999,-999.0,-999.0,0,-99.99,,,-99.99,,2013-01-25 20:40:00,
2013-01-25 15:50:00,-1.0,0.0,-100.00,North,-999,-999.0,-999.0,0,-99.99,,,-99.99,,2013-01-25 20:50:00,
2013-01-25 16:01:00,-1.0,0.0,-100.00,North,-999,-999.0,-999.0,0,-99.99,,,-99.99,,2013-01-25 21:01:00,
2013-01-25 16:10:00,-1.0,0.0,-100.00,North,-999,-999.0,-999.0,0,-99.99,,,-99.99,,2013-01-25 21:10:00,
2013-01-25 16:20:00,18.0,-2.7,-100.00,North,-999,-999.0,-999.0,39,-99.99,,,-99.99,,2013-01-25 21:20:00,
2013-01-25 16:30:00,18.2,-2.0,-100.00,North,-999,-999.0,-999.0,40,-99.99,,,-99.99,,2013-01-25 21:30:00,
2013-01-25 16:40:00,17.5,-2.2,-100.00,North,-999,-999.0,-999.0,41,-99.99,,,-99.99,,2013-01-25 21:40:00,
2013-01-25 16:50:00,17.1,-2.6,-100.00,North,-999,-999.0,-999.0,41,-99.99,,,-99.99,,2013-01-25 21:50:00,
2013-01-25 17:00:00,16.9,-3.3,-100.00,North,-999,-999.0,-999.0,40,-99.99,,,-99.99,,2013-01-25 22:00:00,
2013-01-25 17:10:00,16.6,-2.9,-100.00,North,-999,-999.0,-999.0,41,-99.99,,,-99.99,,2013-01-25 22:10:00,
2013-01-25 17:20:00,16.6,-2.9,-100.00,North,-999,-999.0,-999.0,41,-99.99,,,-99.99,,2013-01-25 22:20:00,
2013-01-25 17:30:00,16.4,-3.1,-100.00,North,-999,-999.0,-999.0,41,-99.99,,,-99.99,,2013-01-25 22:30:00,
2013-01-25 17:40:00,16.7,-2.9,-100.00,North,-999,-999.0,-999.0,41,-99.99,,,-99.99,,2013-01-25 22:40:00,
2013-01-25 17:50:00,16.4,-2.6,-100.00,North,-999,-999.0,-999.0,42,-99.99,,,-99.99,,2013-01-25 22:50:00,
2013-01-25 18:00:00,16.2,-2.7,-100.00,North,-999,-999.0,-999.0,42,-99.99,,,-99.99,,2013-01-25 23:00:00,
2013-01-25 18:10:00,16.0,-2.6,-100.00,North,-999,-999.0,-999.0,43,-99.99,,,-99.99,,2013-01-25 23:10:00,
2013-01-25 18:20:00,16.2,-1.8,-100.00,North,-999,-999.0,-999.0,44,-99.99,,,-99.99,,2013-01-25 23:20:00,
2013-01-25 18:30:00,16.2,-1.8,-100.00,North,-999,-999.0,-999.0,44,-99.99,,,-99.99,,2013-01-25 23:30:00,
2013-01-25 18:40:00,16.2,-1.8,-100.00,North,-999,-999.0,-999.0,44,-99.99,,,-99.99,,2013-01-25 23:40:00,
2013-01-25 18:50:00,16.2,-1.3,-100.00,North,-999,-999.0,-999.0,45,-99.99,,,-99.99,,2013-01-25 23:50:00,
2013-01-25 19:00:00,16.4,-1.1,-100.00,North,-999,-999.0,-999.0,45,-99.99,,,-99.99,,2013-01-26 00:00:00,
2013-01-25 19:10:00,16.7,0.5,-100.00,North,-999,-999.0,-999.0,48,-99.99,,,-99.99,,2013-01-26 00:10:00,
2013-01-25 19:20:00,16.6,1.2,-100.00,North,-999,-999.0,-999.0,50,-99.99,,,-99.99,,2013-01-26 00:20:00,
2013-01-25 19:30:00,16.4,0.1,-100.00,North,-999,-999.0,-999.0,48,-99.99,,,-99.99,,2013-01-26 00:30:00,
2013-01-25 19:40:00,16.4,-0.2,-100.00,North,-999,-999.0,-999.0,47,-99.99,,,-99.99,,2013-01-26 00:40:00,
2013-01-25 19:50:00,16.6,-0.6,-100.00,North,-999,-999.0,-999.0,46,-99.99,,,-99.99,,2013-01-26 00:50:00,
2013-01-25 20:00:00,16.4,-0.8,-100.00,North,-999,-999.0,-999.0,46,-99.99,,,-99.99,,2013-01-26 01:00:00,
2013-01-25 20:10:00,16.7,0.9,-100.00,North,-999,-999.0,-999.0,49,-99.99,,,-99.99,,2013-01-26 01:10:00,
2013-01-25 20:20:00,16.7,0.5,-100.00,North,-999,-999.0,-999.0,48,-99.99,,,-99.99,,2013-01-26 01:20:00,
2013-01-25 20:30:00,16.7,0.5,-100.00,North,-999,-999.0,-999.0,48,-99.99,,,-99.99,,2013-01-26 01:30:00,
2013-01-25 20:40:00,16.7,0.9,-100.00,North,-999,-999.0,-999.0,49,-99.99,,,-99.99,,2013-01-26 01:40:00,
2013-01-25 20:50:00,16.7,1.8,-100.00,North,-999,-999.0,-999.0,51,-99.99,,,-99.99,,2013-01-26 01:50:00,
2013-01-25 21:00:00,16.6,0.9,-100.00,North,-999,-999.0,-999.0,49,-99.99,,,-99.99,,2013-01-26 02:00:00,
2013-01-25 21:10:00,16.4,1.4,-100.00,North,-999,-999.0,-999.0,51,-99.99,,,-99.99,,2013-01-26 02:10:00,
2013-01-25 21:20:00,16.0,2.7,-100.00,North,-999,-999.0,-999.0,55,-99.99,,,-99.99,,2013-01-26 02:20:00,
2013-01-25 21:30:00,15.7,3.2,-100.00,North,-999,-999.0,-999.0,57,-99.99,,,-99.99,,2013-01-26 02:30:00,
2013-01-25 21:40:00,15.5,4.1,-100.00,North,-999,-999.0,-999.0,60,-99.99,,,-99.99,,2013-01-26 02:40:00,
2013-01-25 21:50:00,15.3,4.6,-100.00,North,-999,-999.0,-999.0,62,-99.99,,,-99.99,,2013-01-26 02:50:00,
2013-01-25 22:00:00,14.8,4.8,-100.00,North,-999,-999.0,-999.0,64,-99.99,,,-99.99,,2013-01-26 03:00:00,
2013-01-25 22:10:00,14.8,5.5,-100.00,North,-999,-999.0,-999.0,66,-99.99,,,-99.99,,2013-01-26 03:10:00,
2013-01-25 22:20:00,14.8,6.3,-100.00,North,-999,-999.0,-999.0,68,-99.99,,,-99.99,,2013-01-26 03:20:00,
2013-01-25 22:30:00,14.6,6.1,-100.00,North,-999,-999.0,-999.0,68,-99.99,,,-99.99,,2013-01-26 03:30:00,
2013-01-25 22:40:00,14.2,5.9,-100.00,North,-999,-999.0,-999.0,69,-99.99,,,-99.99,,2013-01-26 03:40:00,
2013-01-25 22:50:00,14.0,5.7,-100.00,North,-999,-999.0,-999.0,69,-99.99,,,-99.99,,2013-01-26 03:50:00,
2013-01-25 23:00:00,14.0,5.7,-100.00,North,-999,-999.0,-999.0,69,-99.99,,,-99.99,,2013-01-26 04:00:00,
2013-01-25 23:10:00,13.9,5.9,-100.00,North,-999,-999.0,-999.0,70,-99.99,,,-99.99,,2013-01-26 04:10:00,
2013-01-25 23:20:00,13.3,5.4,-100.00,North,-999,-999.0,-999.0,70,-99.99,,,-99.99,,2013-01-26 04:20:00,
2013-01-25 23:30:00,13.3,5.0,-100.00,North,-999,-999.0,-999.0,69,-99.99,,,-99.99,,2013-01-26 04:30:00,
2013-01-25 23:40:00,13.7,6.1,-100.00,North,-999,-999.0,-999.0,71,-99.99,,,-99.99,,2013-01-26 04:40:00,
2013-01-25 23:50:00,13.3,5.7,-100.00,North,-999,-999.0,-999.0,71,-99.99,,,-99.99,,2013-01-26 04:50:00,